Location: Bailen
(14.1842°N, 120.7958°E)
Time: 16:59:06
(UTC+00:00)

Cosmos 1500 Rocket - Pass Details

Date: 12 January 2026
Orbit: 597 x 623 km, 82.5° (Epoch: 17 February)

Event Time Altitude Azimuth Distance (km) Brightness Sun altitude
Rises 21:28:52 0° 184° (S) 2,831 7.1 -13.5°
Reaches altitude 10° 21:31:04 10° 185° (S) 1,932 6.3 -13.0°
Maximum altitude 21:35:20 87° 274° (W) 605 3.4 -12.0°
Drops below altitude 10° 21:39:39 10° 4° (N) 1,948 6.0 -11.0°
Sets 21:41:52 0° 4° (N) 2,856 6.8 -10.5°
